TimeEST,TemperatureF,Dew PointF,Humidity,Sea Level PressureIn,VisibilityMPH,Wind Direction,Wind SpeedMPH,Gust SpeedMPH,PrecipitationIn,Events,Conditions,WindDirDegrees,DateUTC
12:56 AM,34.0,24.1,67,29.95,10.0,East,8.1,-,N/A,,Mostly Cloudy,90,2013-02-26 05:56:00
1:56 AM,35.1,23.0,61,29.91,10.0,East,12.7,-,N/A,,Overcast,80,2013-02-26 06:56:00
2:56 AM,35.1,23.0,61,29.85,10.0,ENE,12.7,-,N/A,,Overcast,70,2013-02-26 07:56:00
3:56 AM,35.1,23.0,61,29.83,10.0,ENE,9.2,-,N/A,,Overcast,70,2013-02-26 08:56:00
4:56 AM,35.1,23.0,61,29.79,10.0,ENE,13.8,-,N/A,,Overcast,70,2013-02-26 09:56:00
5:56 AM,34.0,24.1,67,29.75,10.0,ENE,15.0,-,N/A,,Overcast,70,2013-02-26 10:56:00
6:56 AM,35.1,27.0,72,29.73,6.0,East,16.1,21.9,0.02,Rain,Rain,90,2013-02-26 11:56:00
7:56 AM,34.0,28.9,82,29.71,3.0,East,15.0,-,0.05,Rain,Rain,90,2013-02-26 12:56:00
8:56 AM,35.1,30.0,82,29.69,3.0,East,18.4,25.3,0.02,Rain,Light Rain,90,2013-02-26 13:56:00
9:56 AM,36.0,32.0,86,29.64,6.0,East,16.1,-,0.04,Rain,Light Rain,90,2013-02-26 14:56:00
10:56 AM,37.0,35.1,93,29.59,4.0,East,21.9,29.9,0.04,Rain,Light Rain,90,2013-02-26 15:56:00
11:35 AM,37.4,35.6,93,29.56,3.0,East,23.0,31.1,0.01,Rain,Light Rain,100,2013-02-26 16:35:00
11:40 AM,37.4,35.6,93,29.55,2.5,ESE,20.7,31.1,0.02,Rain,Rain,110,2013-02-26 16:40:00
11:56 AM,37.9,36.0,93,29.56,2.5,East,18.4,25.3,0.06,Rain,Light Rain,100,2013-02-26 16:56:00
12:05 PM,37.4,35.6,93,29.54,9.0,ESE,20.7,27.6,0.00,,Overcast,110,2013-02-26 17:05:00
12:33 PM,37.4,35.6,93,29.52,2.0,East,16.1,26.5,0.03,Rain,Rain,100,2013-02-26 17:33:00
12:51 PM,37.4,37.4,100,29.52,4.0,ESE,16.1,23.0,0.05,Rain,Light Rain,110,2013-02-26 17:51:00
12:56 PM,39.0,37.0,93,29.54,4.0,ESE,17.3,23.0,0.05,Rain,Light Rain,110,2013-02-26 17:56:00
1:56 PM,39.9,37.9,93,29.48,9.0,East,20.7,26.5,0.03,,Overcast,100,2013-02-26 18:56:00
2:56 PM,42.1,41.0,96,29.44,9.0,ESE,18.4,26.5,0.01,Rain,Light Rain,110,2013-02-26 19:56:00
3:56 PM,42.1,42.1,100,29.42,2.0,ESE,16.1,-,0.01,Rain,Light Rain,110,2013-02-26 20:56:00
4:07 PM,42.8,42.8,100,29.41,4.0,ESE,19.6,-,0.01,Rain,Light Rain,110,2013-02-26 21:07:00
4:56 PM,43.0,42.1,97,29.41,7.0,ESE,19.6,25.3,0.03,Rain,Light Rain,110,2013-02-26 21:56:00
5:08 PM,42.8,42.8,100,29.40,4.0,ESE,18.4,-,0.00,Rain,Rain,110,2013-02-26 22:08:00
5:56 PM,44.1,43.0,96,29.42,2.5,ESE,15.0,21.9,0.03,Rain,Rain,120,2013-02-26 22:56:00
6:02 PM,44.6,42.8,93,29.41,3.0,ESE,13.8,-,0.02,Rain,Rain,120,2013-02-26 23:02:00
6:56 PM,44.1,42.1,93,29.44,4.0,SSE,12.7,-,0.08,Rain,Rain,150,2013-02-26 23:56:00
7:16 PM,44.6,42.8,93,29.43,5.0,SSE,12.7,-,0.04,Rain,Rain,150,2013-02-27 00:16:00
7:33 PM,44.6,42.8,93,29.44,4.0,SSW,5.8,-,0.09,Rain,Rain,200,2013-02-27 00:33:00
7:44 PM,44.6,42.8,93,29.44,8.0,South,8.1,-,0.09,Rain,Light Rain,190,2013-02-27 00:44:00
7:56 PM,44.1,43.0,96,29.46,9.0,South,5.8,-,0.10,Rain,Light Rain,170,2013-02-27 00:56:00
8:56 PM,43.0,41.0,93,29.46,10.0,SSW,12.7,-,0.00,,Overcast,210,2013-02-27 01:56:00
9:15 PM,42.8,41.0,93,29.45,10.0,SSW,11.5,-,N/A,,Overcast,210,2013-02-27 02:15:00
9:34 PM,42.8,41.0,93,29.46,10.0,SW,11.5,-,0.00,Rain,Light Rain,220,2013-02-27 02:34:00
9:56 PM,43.0,41.0,93,29.48,10.0,SSW,8.1,-,0.00,,Overcast,210,2013-02-27 02:56:00
10:11 PM,42.8,41.0,93,29.46,10.0,SW,10.4,-,N/A,,Overcast,220,2013-02-27 03:11:00
10:56 PM,43.0,39.9,89,29.48,10.0,SW,16.1,-,0.00,,Overcast,220,2013-02-27 03:56:00
11:22 PM,42.8,39.2,87,29.48,10.0,SW,13.8,-,N/A,,Overcast,220,2013-02-27 04:22:00
11:48 PM,42.8,39.2,87,29.48,10.0,SW,12.7,-,N/A,,Overcast,220,2013-02-27 04:48:00
11:56 PM,42.1,39.9,92,29.50,10.0,SW,12.7,-,0.00,Rain,Light Rain,220,2013-02-27 04:56:00